Flag for Canada Weather past 2 weeks in Hamilton, Ontario, Canada

61 °F


Feels Like: 61 °F
Forecast: N/A
Wind: 3 mph from West

Location: Hamilton Airport

Current Time: Oct 6, 2015 at 5:23:26 PM

Latest Report: Oct 6, 2015 at 5:00 PM

Visibility: 6 mi

Pressure: 30.07 "Hg

Humidity: 83%

Dew point: 55 °F

Location of HamiltonLocation

Historic Weather in Hamilton — Graph


Hamilton temperature yesterday

Maximum temperature yesterday: 57 °F (at 3:00 PM)
Minimum temperature yesterday: 50 °F (at 2:00 AM)
Average temperature yesterday: 54 °F

Past Weeks' High & Low Weather Summary

High75 °F (Sep 23, 3:00 PM)100% (Sep 22, 8:00 AM)30.45 "Hg (Sep 22, 8:00 AM)
Low41 °F (Oct 1, 8:00 AM)44% (Sep 23, 3:00 PM)29.92 "Hg (Sep 29, 3:00 PM)
Average58 °F80%30.25 "Hg
* Reported Sep 21 4:00 PM — Oct 6 4:00 PM, Hamilton, Weather by CustomWeather, © 2015

Note: Actual official high and low records may vary slightly from our data, if they occured in-between our weather recording intervals... More about our weather records


Hamilton weather history for previous 24 hours

Time TempWeatherWind HumidityBarometerVisibility
4:00 PM
Tue, Oct 6
61 °FFog.5 mph83%30.07 "Hg6 mi
3:00 PM59 °FFog.3 mph94%30.09 "Hg5 mi
2:00 PM59 °FFog.6 mph88%30.11 "Hg6 mi
1:00 PM59 °FFog.8 mph88%30.13 "Hg4 mi
12:00 PM57 °FLight rain. Fog.3 mph94%30.13 "Hg3 mi
11:00 AM55 °FLight rain. Fog.3 mph100%30.14 "Hg2 mi
10:00 AM55 °FLight rain. Fog.2 mph100%30.14 "Hg2 mi
9:00 AM55 °FLight rain. Fog.No wind94%30.14 "Hg1 mi
8:52 AM55 °FLight rain. Fog.2 mph94%30.14 "Hg1 mi
8:00 AM54 °FDrizzle. Fog.No wind100%30.13 "Hg1 mi
7:00 AM54 °FDrizzle. Fog.2 mph100%30.12 "Hg2 mi
6:00 AM55 °FDrizzle. Fog.3 mph94%30.13 "Hg2 mi
5:00 AM55 °FDrizzle. Fog.5 mph94%30.12 "Hg5 mi
4:00 AM55 °FFog.5 mph94%30.11 "Hg6 mi
3:00 AM55 °FFog.No wind94%30.12 "Hg6 mi
2:00 AM55 °FFog.2 mph94%30.14 "Hg6 mi
1:00 AM55 °FFog.3 mph94%30.14 "Hg6 mi
12:00 AM54 °FMostly cloudy.3 mph94%30.15 "Hg8 mi
11:00 PM
Mon, Oct 5
55 °FMostly cloudy.2 mph94%30.16 "Hg8 mi
10:00 PM55 °FPassing clouds.2 mph94%30.16 "Hg8 mi
9:00 PM55 °FOvercast.6 mph94%30.16 "Hg8 mi
8:00 PM55 °FMostly cloudy.3 mph94%30.17 "Hg8 mi
7:00 PM55 °FFog.6 mph94%30.16 "Hg6 mi
6:00 PM55 °FFog.8 mph94%30.16 "Hg6 mi
5:00 PM57 °FFog.6 mph88%30.16 "Hg6 mi
Weather by CustomWeather, © 2015

See weather overviewHow to use our weather pages